www.pogodaiklimat.ru

Погода и климат >> Архив погоды >> Египет >> Бахария


ПОГОДА в Бахарии

  • Прогноз погоды в Бахарии
  • Монитор погоды в Бахарии

АРХИВ ПОГОДЫ в Бахарии

Время (UTC), дата Ветер
(напр.,м/с)
 
Видим.   Явления Облачность Т
(С)
Тd
(С)
f
(%)
Тe
(С)
Тes
(С)
Комфортность P
(гПа)
Po
(гПа)
Тmin
(С)
Tmax
(С)
R
(мм)
R24
(мм)
S
(см)
00 16.09 штиль 0 10 км ясно +23.0 +17.0 69 +28 +28 душно 1013.2 998.1
03 16.09 штиль 0 10 км ясно +20.0 +17.0 83 +23 +23 комфорт 1013.5 998.3
06 16.09 штиль 0 10 км ясно +25.0 +17.0 61 +29 +34 душно 1014.9 999.9 +19.8
09 16.09 СЗ 3 10 км ясно +30.0 +15.0 40 +32 +47 жарко 1014.9 1000.1
12 16.09 СЗ 4 10 км ясно +35.0 +12.0 25 +35 +44 очень
жарко
1013.2 998.7
15 16.09 С 3 10 км ясно +34.0 +7.0 19 +32 +33 жарко 1012.2 997.7
18 16.09 С 2 10 км ясно +27.0 +7.0 28 +27 +27 жарко 1013.2 998.3 +36.6
21 16.09 С 2 10 км ясно +23.0 +16.0 65 +27 +27 душно 1014.4 999.3
00 17.09 С 3 10 км ясно +24.0 +16.0 61 +27 +27 жарко 1013.5 998.5
09 17.09 СЗ 4 10 км ясно +29.0 +18.1 52 +34 +45 очень
душно
1014.8 1000.0
12 17.09 СЗ 2 10 км ясно +33.6 +14.4 31 +35 +48 душно 1012.7 998.1
15 17.09 С 2 10 км ясно +33.6 +14.4 31 +35 +36 душно 1011.8 997.3
18 17.09 С 2 10 км ясно +28.0 +8.0 28 +28 +28 жарко 1012.9 998.1 +35.8
21 17.09 С 5 10 км ясно +26.0 +13.0 45 +28 +28 жарко 1014.2 999.2
00 18.09 С 4 10 км ясно +23.0 +14.0 57 +26 +26 жарко 1012.5 997.4
03 18.09 С 2 10 км ясно +20.0 +14.0 68 +23 +23 комфорт 1014.2 998.9
06 18.09 С 3 10 км ясно +23.0 +16.0 65 +27 +31 душно 1015.7 1000.6 +19.5
09 18.09 С 4 10 км ясно +32.0 +5.0 18 +30 +41 жарко 1015.2 1000.5
12 18.09 С 4 10 км ясно +37.0 +4.0 13 +34 +44 очень
жарко
1013.7 999.3
15 18.09 СЗ 5 10 км ясно +33.2 +9.7 24 +32 +33 жарко 1012.3 997.7
18 18.09 С 2 10 км ясно +18.7 +13.1 70 +20 +20 1013.9 998.6 +37.8
21 18.09 СЗ 4 10 км ясно +25.0 +15.4 55 +28 +28 жарко 1014.4 999.4
03 19.09 СЗ 1 8000 м местами туман поземный ясно +19.6 +17.8 89 +23 +23 комфорт 1014.7 999.4
06 19.09 штиль 0 8000 м дымка ясно +22.0 +18.7 82 +27 +32 душно 1015.4 1000.2 +18.8
09 19.09 С 5 10 км ясно +28.2 +16.1 48 +31 +39 душно 1014.9 1000.0
12 19.09 С 4 10 км ясно +33.0 +11.8 27 +33 +42 жарко 1012.8 998.2
15 19.09 С 3 10 км ясно +33.2 +10.2 24 +32 +34 жарко 1012.0 997.4
18 19.09 С 2 10 км ясно +28.0 +11.9 37 +29 +29 жарко 1013.6 998.8 +35.2
21 19.09 С 4 10 км ясно +25.0 +12.0 44 +27 +27 жарко 1014.6 999.6
00 20.09 С 3 10 км ясно +21.0 +12.9 60 +24 +24 комфорт 1014.8 999.6
03 20.09 штиль 0 10 км ясно +20.4 +17.6 84 +24 +24 комфорт 1014.3 999.1
06 20.09 С 2 10 км ясно +22.0 +17.1 74 +26 +31 душно 1015.3 1000.1 +19.8
12 20.09 С 3 10 км ясно +32.4 +15.1 35 +34 +45 очень
жарко
1012.3 997.7
15 20.09 С 2 10 км ясно +33.0 +12.6 29 +33 +35 жарко 1011.9 997.3
21 20.09 С 2 10 км ясно +24.9 +14.0 51 +27 +27 жарко 1014.6 999.6
00 21.09 С 2 10 км ясно +21.8 +16.8 73 +26 +26 душно 1014.4 999.2
03 21.09 штиль 0 10 км ясно +19.0 +17.1 89 +20 +20 1014.8 999.5
06 21.09 С 2 10 км ясно +21.8 +18.2 80 +27 +31 душно 1015.2 1000.0 +17.8
09 21.09 С 4 10 км ясно +28.4 +17.4 51 +32 +44 душно 1014.4 999.6
12 21.09 СЗ 5 10 км ясно +33.4 +14.5 32 +35 +42 душно 1012.2 997.6
15 21.09 С 2 10 км ясно +33.2 +12.9 29 +34 +35 очень
жарко
1011.4 996.8
18 21.09 С 2 10 км ясно +28.3 +13.7 41 +30 +30 жарко 1012.9 998.1 +35.0
21 21.09 СЗ 5 10 км ясно +25.6 +13.0 46 +28 +28 жарко 1014.4 999.4
00 22.09 С 4 10 км ясно +23.1 +11.3 47 +25 +25 комфорт 1014.3 999.2
03 22.09 С 4 10 км ясно +20.8 +9.4 48 +23 +23 комфорт 1014.6 999.4
06 22.09 СЗ 3 10 км ясно +22.0 +17.4 75 +26 +30 душно 1016.2 1001.0 +19.4
09 22.09 С 4 10 км ясно +27.3 +19.1 61 +33 +43 очень
душно
1015.7 1000.8
12 22.09 С 4 10 км ясно +32.2 +15.2 36 +34 +43 душно 1012.9 998.3
15 22.09 С 2 10 км ясно +32.7 +13.5 31 +34 +35 очень
жарко
1011.9 997.3
18 22.09 С 1 10 км ясно +28.4 +14.5 43 +31 +31 душно 1013.6 998.8 +34.0
21 22.09 З 4 10 км ясно +24.0 +16.4 62 +27 +27 жарко 1015.2 1000.1

 

Местоположение метеостанции Бахария (Египет): широта 28.33 долгота 28.90 высота над уровнем моря 130 м.

В архиве по умолчанию представлена погода в Бахарии за последнюю неделю. Архивные данные за месяц целиком и за предыдущие месяцы, начиная с января 2011 года, Вы можете получить, выбрав интересующий диапазон дат из раскрывающегося списка и нажав кнопку "Ввод!".


*Определитесь, кто Вы:
робот инопланетянин человек

Внимание! Время в таблицах - всемирное. Для получения местного времени необходимо прибавить поправку, которая равна 2 ч.

Смотрите также архив погоды в соседних городах и на ближайших метеорологических станциях:

Погода в Фарафре (Египет) (169 км)
Погода в Миня (Египет) (182 км)
Погода в Асьюте (Египет) (253 км)
Погода в Вади-эль-Натруон (Египет) (262 км)
Погода в Дабаа (Египет) (292 км)
Погода в Каире (Египет) (315 км)
Погода в Дахле (Египет) (317 км)
Погода в Александрии (Египет) (335 км)
Погода в Харге (Египет) (359 км)
Погода в Сиве (Египет) (362 км)

Пояснения к столбцам:

Ветер - указаны скорость ветра в м/с - средняя за 10 мин, порывы в срок и между сроками (в фигурных скобках) и направление, откуда дует ветер: С - северный, СВ - северо-восточный, В - восточный, ЮВ - юго-восточный, Ю - южный, ЮЗ - юго-западный, З - западный, СЗ - северо-западный.
Видимость - горизонтальная дальность видимости в метрах или километрах. При видимости от 1 до 10 км при отсутствии осадков обычно наблюдается дымка, при ухудшении видимости до 1 км и менее - туман. В сухую погоду видимость может ухудшаться дымом, пылью или мглою.
Явления - указаны атмосферные явления, наблюдавшиеся в срок или в последний час перед сроком; фигурными скобками обозначены явления, наблюдавшиеся между сроками (за 1-3 часа до срока); квадратными скобками обозначены град или гололедные отложения с указанием их диаметра в мм.
Облачность - указаны через наклонную черту общая и нижняя облачность в баллах и высота нижней границы облаков в метрах; квадратными скобками обозначены формы облаков: Ci - перистые, Cs - перисто-слоистые, Cc - перисто-кучевые, Ac - высококучевые, As - высокослоистые, Sc - слоисто-кучевые, Ns - слоисто-дождевые, Cu - кучевые, Cb - кучево-дождевые. Подробнее классификацию облаков см. в Атласе облаков (PDF).
T - Температура воздуха - температура, измеренная на высоте 2 м над землей.
Td - Температура точки росы - температура, при понижении до которой содержащийся в воздухе водяной пар достигнет насыщения.
f - Относительная влажность воздуха - влажноcть воздуха, измеренная на высоте 2 м над землей.
Te - Эффективная температура - температура, которую ощущает одетый по сезону человек в тени. Характеристика душности погоды. При расчете учитывается влияние влажности воздуха и скорости ветра на теплоощущения человека.
Tes - Эффективная температура на солнце - температура, которую ощущает человек, с поправкой на солнечный нагрев. Характеристика знойности погоды. Зависит от высоты солнца над горизонтом, облачности и скорости ветра. Ночью, в пасмурную погоду, а также при ветре 12 м/с и более поправка равна нулю.
P - Атмосферное давление - приведенное к уровню моря атмосферное давление.
Po - Атмосферное давление - измеренное на уровне метеостанции атмосферное давление.
Tmin - Минимальная температура - минимум температуры воздуха на высоте 2 м над землей.
Tmax - Максимальная температура - максимум температуры воздуха на высоте 2 м над землей.
R - Количество осадков - Количество выпавших осадков за период времени, мм. При наведении курсора мыши на число - период времени, за который выпало указанное количество осадков.
R24 - Количество осадков - Количество выпавших осадков за 24 часа, мм.
S - Снежный покров - Высота снежного покрова, см. При наведении курсора мыши на число - состояние снежного покрова и степень покрытия местности в баллах.